Regional Weather Roundup
Issued by NWS Upton, NY

Current Version | Previous Version | Graphics & Text | Print | Product List | Glossary Off
Versions: 1 2 3 4 5 6 7 8 9 10 11 12 13 14 15 16 17 18 19 20 21 22 23 24 25 26 27 28 29 30 31 32 33 34 35 36 37 38 39 40 41 42 43 44 45 46 47 48 49 50

000
ASUS41 KOKX 220907
RWROKX

REGIONAL WEATHER ROUNDUP
NATIONAL WEATHER SERVICE NEW YORK NY
500 AM EDT WED MAR 22 2017

NOTE: "FAIR" INDICATES FEW OR NO CLOUDS BELOW 12,000 FEET WITH NO
SIGNIFICANT WEATHER AND/OR OBSTRUCTIONS TO VISIBILITY.

NYZ071-072-176-178-NJZ106-104-221000-
NEW YORK CITY METRO AREA

CITY           SKY/WX    TMP DP  RH WIND       PRES   REMARKS
Central Park   CLEAR     43  23  45 NW14G23   29.92R
Wall St Helipt SUNNY     44  25  47 CALM      29.91R
LaGuardia APRT PTCLDY    45  26  47 NW17      29.89R
Kennedy INTL   PTCLDY    44  24  45 NW20      29.89R
Breezy Point     N/A     43 N/A N/A NW13G18     N/A
Newark/Liberty PTCLDY    44  23  43 NW16      29.90R
Teterboro      CLEAR     42  24  49 NW12G21   29.90R
$$

NYZ177-179-078>081-221000-
LONG ISLAND NEW YORK

CITY           SKY/WX    TMP DP  RH WIND       PRES   REMARKS
Jones Beach      N/A     43 N/A N/A NW17G25     N/A
Matinecock PT  NOT AVBL
Farmingdale    CLEAR     43  22  43 NW20G25   29.87R
MacArthur/ISP  PTCLDY    42  23  46 NW12      29.85R
Shirley        CLEAR     42  23  46 NW10G21   29.86R
Westhampton    PTCLDY    30  24  78 NW8       29.85S WCI  22
East Hampton     N/A     33  27  76 W6        29.82S WCI  28
Montauk          N/A     42  31  64 SW5       29.82S
$$

NYZ052-065-067-221000-
HUDSON VALLEY

CITY           SKY/WX    TMP DP  RH WIND       PRES   REMARKS
White Plains   CLEAR     39  21  48 NW18G30   29.87R WCI  30
Newburgh       CLEAR     36  21  55 W16       29.91R WCI  26
Montgomery     CLEAR     36  19  50 NW16G26   29.90R WCI  26
Poughkeepsie   CLEAR     36  20  52 W10       29.89R WCI  28
Albany         MOCLDY    35  26  69 W12       29.86R WCI  27
$$

NJZ001-105-106-008-010-013-015-019>022-104-221000-
NEW JERSEY

CITY           SKY/WX    TMP DP  RH WIND       PRES   REMARKS
Newark/Liberty PTCLDY    44  23  43 NW16      29.90R
Teterboro      CLEAR     42  24  49 NW12G21   29.90R
Caldwell       CLEAR     40  24  53 NW13G20   29.92R WCI  32
Somerville     CLEAR     41  26  55 NW8       29.91R
Linden           N/A     43  22  43 N13       29.90R
Sussex         PTCLDY    37  20  50 W9        29.93R WCI  30
Andover          N/A     37  22  54 N8        29.93R WCI  31
Trenton        CLEAR     43  23  45 N6        29.91R
Millville      MOCLDY    46  31  55 W6        29.90R
Atlantic City  CLOUDY    45  34  65 NW5       29.89R
Wrightstown    PTCLDY    44  27  51 NW9       29.88R
Toms River     MOCLDY    38  33  82 NW7       29.90R WCI  33
Belmar         CLEAR     40  28  62 NW10      29.90R WCI  33
$$

PAZ047>061-062-071-221000-
EASTERN PENNSYLVANIA

CITY           SKY/WX    TMP DP  RH WIND       PRES   REMARKS
Philadelphia   CLOUDY    48  22  35 NW15      29.93R
Allentown      CLEAR     40  25  55 N15       29.94R WCI  32
Scranton       CLOUDY    34  19  54 NW12      29.97R WCI  25
$$

CTZ002-004>006-009-010-012-RIZ004-006-007-MAZ004-011-015-221000-
SOUTHERN NEW ENGLAND
 IN CT

CITY           SKY/WX    TMP DP  RH WIND       PRES   REMARKS
Bradley INTL   CLEAR     37  21  52 NW14      29.82S WCI  28
Hartford       CLEAR     32  27  81 NW5       29.84R WCI  27
Danbury        CLEAR     39  21  48 NW15G23   29.86R WCI  31
Wtrbury/Oxford CLEAR     37  18  44 N7        29.84R WCI  32
Bridgeport     CLEAR     43  21  41 W15       29.85S
Meriden        CLEAR     29  25  85 CALM      29.84R
New Haven      CLEAR     37  27  67 CALM      29.84R
Chester          N/A     39  21  48 NW7       29.82R WCI  34
Groton         MOCLDY    39  27  62 NW7       29.81R WCI  34
Wilimantic     CLEAR     30  24  78 CALM      29.82R

 IN RI

CITY           SKY/WX    TMP DP  RH WIND       PRES   REMARKS
Providence     PTCLDY    38  21  50 NW7       29.79R WCI  33
Block Island   CLOUDY    40  34  79 W12       29.80S WCI  33
Westerly       CLOUDY    40  28  62 SW3       29.81R
 IN MA

CITY           SKY/WX    TMP DP  RH WIND       PRES   REMARKS
Boston         PTCLDY    39  24  55 W12G21    29.75S WCI  32
Worcester      CLEAR     34  15  46 W20G30    29.74F WCI  23
Westfield      CLEAR     36  20  52 W15G23    29.81F WCI  27
Provincetown   PTCLDY    34  30  85 SW8       29.75F WCI  27
Nantucket      CLOUDY    34  28  79 SW7       29.77S WCI  28
$$

ANZ330-335-338-340-345-350-353-355-221000-
COASTAL MARINE OBSERVATIONS


STATION/POSITION TIME  SKY/WX   TEMP    WIND        PRES    VSBY  WAVE
                                AIR SEA DIR/SP/G                  HT/PER
                 (UTC)          (F)     (DEG/KT/KT) (MB)    (MI)  (FT/S)
NY HARB ENTRANCE 0750            47 43  290/  6/  6 1011.3          2/11
20 S FIRE ISLAND 0750            44 41  290/  4/  4 1010.6          2/11
GREAT SOUTH BAY  NOT AVBL
23 SSW MONTAUK P 0750            43 42              1010.1
15 E BARNEGAT LI 0830               43                N/A           3/10
HUDSON CANYON    0750            50 46  260/ 14/ 17 1010.2          3/10
KINGS POINT      0842            42 38              1011.7
EXECUTION ROCKS  NOT AVBL
CENTRAL LI SOUND 0830            43     280/ 14/ 17   N/A           0
EASTERN LI SOUND NOT AVBL
ROBBINS REEF     0842            44     330/ 15/ 22 1012.3
$$


>>>>>>>>>>>>>>>>>>>>>>>>>>>> KEY <<<<<<<<<<<<<<<<<<<<<<<<<<<
>                                                          <
>     SKY/WX - Sky Condition/Present Weather               <
>     TMP    - Temperature in Fahrenheit                   <
>     DP     - Dew Point in Fahrenheit                     <
>     RH     - Relative Humidity in Percent                <
>     WIND   - Direction (from) and Speed in MPH           <
>     PRES   - Mean Sea Level Pressure (inches of Hg)      <
>     WCI    - Wind Chill Index                            <
>     VSB    - VISIBILITY IN MILES                         <
>     HX     - HEAT INDEX                                  <
>     TC     - TEMPERATURE IN CELSIUS                      <
>     VRB    - VARIABLE WIND DIRECTION                     <
>                                                          <
>>>>>>>>>>>>>>>>>>>>>>>>>>>> KEY <<<<<<<<<<<<<<<<<<<<<<<<<<<



USA.gov is the U.S. government's official web portal to all federal, state and local government web resources and services.